1484805600.53,35471,6.0,73898.3,-14.01,-46.01,-46.27,0,*64
1484805601.8,35472,6.06,73898.0,-14.01,-46.07,-46.35,0,*62
1484805603.1,35473,6.0,73894.5,-14.01,-46.07,-46.27,0,*60
1484805604.39,35474,6.0,73898.5,-14.01,-46.07,-46.41,0,*67
1484805605.67,35475,6.0,73896.0,-14.01,-46.01,-46.15,0,*61
1484805606.94,35476,6.06,73902.0,-14.01,-46.07,-46.35,0,*66
1484805608.21,35477,6.0,73896.3,-14.01,-46.01,-46.27,0,*62
1484805609.51,35478,6.0,73896.3,-14.01,-46.15,-46.27,0,*68
1484805610.78,35479,6.06,73902.0,-14.01,-45.87,-46.15,0,*60
1484805612.05,35480,6.0,73898.0,-14.01,-45.87,-46.15,0,*66
1484805613.35,35481,6.0,73896.3,-14.01,-46.07,-46.49,0,*65
1484805614.65,35482,6.0,73898.5,-14.01,-46.27,-46.49,0,*64
1484805615.95,35483,6.06,73900.0,-14.01,-46.15,-46.27,0,*6C
1484805617.19,35484,6.06,73898.3,-14.03,-46.35,-46.61,0,*69
1484805618.46,35485,6.0,73894.8,-14.01,-45.87,-46.07,0,*60
1484805619.72,35486,6.06,73898.8,-14.03,-46.15,-46.41,0,*6B
1484805621.02,35487,6.0,73896.3,-14.01,-46.07,-46.27,0,*6B
1484805622.23,35488,6.0,73896.5,-14.03,-45.95,-46.21,0,*68
1484805623.47,35489,6.06,73900.8,-14.03,-46.07,-46.35,0,*64
1484805624.71,35490,6.06,73898.3,-14.01,-45.61,-45.67,0,*69
1484805625.96,35491,6.0,73894.8,-14.01,-45.61,-46.01,0,*6B
1484805627.24,35492,6.06,73896.0,-14.01,-46.01,-46.15,0,*68
1484805628.51,35493,6.06,73898.3,-14.01,-45.87,-46.15,0,*64
1484805629.77,35494,6.0,73894.8,-14.01,-45.41,-45.81,0,*67
1484805631.01,35495,6.0,73892.5,-14.01,-45.41,-45.67,0,*6E
1484805632.29,35496,6.0,73894.0,-14.01,-45.27,-45.61,0,*6B
1484805633.57,35497,6.0,73892.5,-14.01,-45.27,-45.61,0,*6A
1484805634.8,35498,6.0,73894.8,-14.01,-45.41,-45.67,0,*63
1484805636.07,35499,6.06,73898.8,-13.99,-45.47,-45.81,0,*6A
1484805637.3,35500,6.0,73898.3,-13.99,-45.61,-46.01,0,*64
1484805638.54,35501,6.0,73894.3,-13.99,-45.81,-45.87,0,*66
1484805639.78,35502,6.0,73892.8,-13.99,-45.07,-45.41,0,*61
1484805641.03,35503,6.0,73892.3,-13.99,-45.07,-45.21,0,*66
1484805642.28,35504,6.0,73892.3,-13.95,-44.99,-45.21,0,*6B
1484805643.54,35505,6.0,73896.8,-13.95,-45.41,-45.73,0,*69
1484805644.8,35506,6.06,73896.0,-13.95,-45.81,-45.95,0,*6E
1484805646.06,35507,6.0,73894.0,-13.95,-45.33,-45.73,0,*6E
1484805647.3,35508,6.0,73894.3,-13.95,-45.33,-45.61,0,*62
1484805648.55,35509,6.0,73894.0,-13.95,-45.13,-45.53,0,*60
1484805649.81,35510,6.0,73896.0,-13.95,-45.33,-45.73,0,*68
1484805651.05,35511,6.06,73896.0,-13.93,-44.93,-45.13,0,*62
1484805652.3,35512,6.0,73896.8,-13.91,-45.13,-45.53,0,*6E
1484805653.54,35513,6.0,73892.0,-13.93,-45.13,-45.47,0,*68
1484805654.76,35514,6.06,73898.3,-13.93,-44.87,-45.13,0,*62
1484805656.03,35515,6.0,73894.5,-13.91,-44.93,-45.13,0,*64
1484805657.3,35516,6.06,73900.3,-13.91,-45.07,-45.33,0,*69
1484805658.6,35517,6.0,73896.5,-13.91,-44.93,-45.27,0,*61
1484805659.87,35518,6.06,73896.3,-13.91,-45.13,-45.47,0,*61
1484805661.13,35519,6.0,73898.0,-13.91,-44.67,-44.87,0,*6F
1484805662.38,35520,6.06,73900.5,-13.87,-44.61,-44.87,0,*64
1484805663.66,35521,6.06,73896.5,-13.87,-45.27,-45.61,0,*6F
1484805664.9,35522,6.06,73900.3,-13.89,-45.47,-45.67,0,*62
1484805666.15,35523,6.0,73896.0,-13.89,-45.13,-45.47,0,*60
1484805667.39,35524,6.06,73900.0,-13.89,-45.13,-45.47,0,*67
1484805668.64,35525,6.06,73902.0,-13.89,-45.13,-45.47,0,*66
1484805669.88,35526,6.06,73898.5,-13.87,-45.41,-45.61,0,*68
1484805671.11,35527,6.06,73900.5,-13.89,-45.53,-45.87,0,*6C
1484805672.36,35528,6.06,73900.0,-13.89,-45.67,-45.81,0,*62
1484805673.62,35529,6.0,73896.8,-13.87,-45.41,-45.81,0,*69
1484805674.89,35530,6.0,73896.3,-13.89,-45.73,-46.15,0,*60
1484805676.12,35531,6.06,73900.8,-13.89,-46.01,-46.21,0,*60
1484805677.39,35532,6.06,73900.5,-13.87,-45.95,-46.07,0,*67
1484805678.63,35533,6.06,73896.5,-13.87,-45.61,-45.67,0,*68
1484805679.92,35534,6.06,73902.0,-13.87,-45.81,-46.07,0,*64
1484805681.17,35535,6.0,73898.3,-13.89,-45.87,-46.15,0,*6E
1484805682.41,35536,6.0,73902.8,-13.87,-45.87,-45.95,0,*68
1484805683.68,35537,6.0,73898.5,-13.87,-45.87,-46.15,0,*62
1484805684.93,35538,6.06,73898.3,-13.89,-45.95,-46.15,0,*60
1484805686.17,35539,6.0,73898.8,-13.87,-45.67,-45.95,0,*69
1484805687.46,35540,6.0,73898.3,-13.87,-45.81,-46.07,0,*67
1484805688.74,35541,6.0,73896.0,-13.89,-46.15,-46.61,0,*66
1484805690.01,35542,6.0,73896.3,-13.87,-46.07,-46.35,0,*69
1484805691.28,35543,6.0,73896.0,-13.87,-46.07,-46.21,0,*6D
1484805692.5,35544,6.0,73898.5,-13.89,-45.87,-46.01,0,*6D
1484805693.73,35545,6.06,73896.0,-13.89,-45.53,-45.95,0,*6B
1484805694.96,35546,6.06,73896.8,-13.89,-45.67,-46.01,0,*61
1484805696.18,35547,6.0,73894.5,-13.89,-46.01,-46.21,0,*61
1484805697.41,35548,6.0,73894.0,-13.89,-45.87,-46.01,0,*61
1484805698.64,35549,6.0,73898.8,-13.89,-45.53,-45.87,0,*64
1484805699.91,35550,6.06,73896.8,-13.87,-45.95,-46.07,0,*63
1484805701.13,35551,6.06,73898.3,-13.89,-45.95,-46.21,0,*68
1484805702.4,35552,6.06,73896.8,-13.89,-45.47,-45.73,0,*60
1484805703.68,35553,6.06,73900.0,-13.89,-45.07,-45.27,0,*64
1484805704.95,35554,6.06,73900.8,-13.87,-45.07,-45.41,0,*6D
1484805706.25,35555,6.06,73902.5,-13.87,-45.27,-45.47,0,*68
1484805707.52,35556,6.0,73896.0,-13.87,-45.27,-45.61,0,*6F
1484805708.82,35557,6.0,73896.0,-13.87,-45.47,-45.81,0,*66
1484805710.09,35558,6.0,73896.3,-13.87,-45.07,-45.41,0,*61
1484805711.32,35559,6.06,73896.0,-13.87,-45.41,-45.67,0,*66
1484805712.56,35560,6.0,73896.0,-13.87,-45.41,-45.67,0,*6C
1484805713.83,35561,6.0,73898.0,-13.87,-45.07,-45.61,0,*69
1484805715.11,35562,6.0,73896.5,-13.87,-45.27,-45.67,0,*6E
1484805716.32,35563,6.06,73898.3,-13.85,-45.41,-45.67,0,*6D
1484805717.59,35564,6.06,73898.5,-13.85,-45.07,-45.47,0,*6A
1484805718.81,35565,6.06,73896.5,-13.85,-45.21,-45.61,0,*6B
1484805720.08,35566,6.06,73896.5,-13.85,-45.07,-45.47,0,*68
1484805721.36,35567,6.06,73896.5,-13.83,-45.53,-45.81,0,*64
1484805722.6,35568,6.06,73896.0,-13.85,-45.87,-46.15,0,*6A
1484805723.87,35569,6.06,73898.0,-13.83,-46.01,-46.41,0,*61
1484805725.12,35570,6.06,73896.0,-13.85,-46.15,-46.35,0,*69
1484805726.4,35571,6.06,73896.8,-13.85,-46.07,-46.27,0,*68
1484805727.62,35572,6.0,73898.8,-13.85,-45.95,-46.35,0,*60
1484805728.83,35573,6.06,73898.3,-13.85,-45.67,-45.95,0,*65
1484805730.08,35574,6.06,73896.8,-13.85,-45.47,-45.67,0,*6D
1484805731.31,35575,6.06,73896.3,-13.87,-45.67,-45.95,0,*61
1484805732.57,35576,6.06,73898.5,-13.89,-46.15,-46.21,0,*66
1484805733.81,35577,6.06,73898.0,-13.87,-45.67,-45.87,0,*60
1484805735.05,35578,6.0,73898.8,-13.85,-45.61,-45.81,0,*6D
1484805736.35,35579,6.0,73896.8,-13.83,-45.81,-46.07,0,*69
1484805737.57,35580,6.06,73900.0,-13.85,-45.61,-45.87,0,*6C
1484805738.83,35581,6.06,73900.0,-13.85,-45.81,-46.07,0,*68
1484805740.05,35582,6.06,73900.3,-13.85,-45.67,-45.87,0,*68
1484805741.27,35583,6.06,73902.8,-13.85,-45.67,-45.95,0,*6A
1484805742.52,35584,6.06,73902.0,-13.85,-45.95,-46.07,0,*68
1484805743.76,35585,6.06,73900.8,-13.85,-45.95,-46.27,0,*6B
1484805744.98,35586,6.0,73896.8,-13.85,-45.67,-45.95,0,*6F
1484805746.2,35587,6.0,73898.5,-13.85,-45.61,-45.87,0,*6B
1484805747.44,35588,6.0,73896.0,-13.85,-45.95,-46.27,0,*66
1484805748.72,35589,6.0,73896.5,-13.85,-46.07,-46.15,0,*6E
1484805749.99,35590,6.0,73902.8,-13.87,-45.95,-46.15,0,*6C
1484805751.28,35591,6.0,73898.5,-13.87,-45.81,-46.07,0,*6B
1484805752.5,35592,6.06,73900.8,-13.85,-45.61,-45.87,0,*6F
1484805753.75,35593,6.06,73902.5,-13.85,-45.61,-45.81,0,*68
1484805754.97,35594,6.0,73896.5,-13.85,-45.67,-45.95,0,*6C
1484805756.24,35595,6.0,73900.0,-13.85,-45.47,-45.81,0,*6A
1484805757.45,35596,6.06,73902.0,-13.85,-45.67,-45.95,0,*6E
1484805758.69,35597,6.0,73900.0,-13.83,-45.87,-46.21,0,*6B
1484805759.96,35598,6.0,73898.3,-13.85,-45.81,-46.07,0,*60
1484805761.18,35599,6.0,73896.8,-13.85,-45.61,-45.87,0,*64
1484805762.43,35600,6.06,73902.0,-13.85,-45.21,-45.47,0,*6F
1484805763.64,35601,6.06,73898.3,-13.85,-45.41,-45.61,0,*6C
1484805764.89,35602,6.0,73898.3,-13.85,-45.87,-46.15,0,*65
1484805766.14,35603,6.0,73898.5,-13.85,-45.95,-46.15,0,*67
1484805767.41,35604,6.06,73900.0,-13.85,-45.81,-46.07,0,*66
1484805768.65,35605,6.0,73898.0,-13.85,-45.67,-45.81,0,*62
1484805769.9,35606,6.06,73900.8,-13.83,-45.21,-45.53,0,*6A
1484805771.15,35607,6.06,73900.0,-13.85,-45.21,-45.47,0,*68
1484805772.4,35608,6.0,73898.3,-13.83,-45.53,-46.01,0,*65
1484805773.67,35609,6.0,73896.3,-13.83,-45.61,-45.73,0,*63
1484805774.88,35610,6.06,73898.8,-13.85,-45.41,-45.67,0,*6A
1484805776.15,35611,6.06,73900.3,-13.85,-45.81,-46.15,0,*61
1484805777.4,35612,6.06,73898.5,-13.85,-45.67,-46.07,0,*69
1484805778.69,35613,6.06,73900.0,-13.83,-45.81,-46.07,0,*66
1484805779.96,35614,6.06,73902.0,-13.83,-45.61,-45.81,0,*62
1484805781.21,35615,6.06,73900.3,-13.85,-45.61,-45.81,0,*65
1484805782.42,35616,6.0,73898.0,-13.85,-45.41,-45.67,0,*6C
1484805783.69,35617,6.06,73896.3,-13.85,-45.07,-45.47,0,*6D
1484805784.93,35618,6.0,73898.0,-13.83,-45.13,-45.41,0,*67
1484805786.19,35619,6.0,73898.5,-13.85,-45.27,-45.61,0,*65
1484805787.43,35620,6.0,73900.3,-13.83,-45.13,-45.41,0,*6C
1484805788.65,35621,6.06,73900.8,-13.81,-45.21,-45.53,0,*6D
1484805789.93,35622,6.06,73900.3,-13.83,-45.61,-45.81,0,*67
1484805791.17,35623,6.06,73902.3,-13.81,-45.61,-45.81,0,*64
1484805792.39,35624,6.0,73898.3,-13.81,-45.13,-45.41,0,*6A
1484805793.61,35625,6.0,73894.3,-13.81,-44.99,-45.33,0,*6D
1484805794.84,35626,6.0,73896.5,-13.81,-45.21,-45.53,0,*6A
1484805796.1,35627,6.0,73896.8,-13.79,-45.47,-45.67,0,*6B
1484805797.32,35628,6.0,73896.5,-13.81,-45.87,-46.21,0,*6E
1484805798.55,35629,6.06,73900.5,-13.81,-45.53,-45.61,0,*61
1484805799.77,35630,6.06,73902.3,-13.81,-45.13,-45.21,0,*69
1484805800.99,35631,6.06,73902.3,-13.81,-44.79,-44.99,0,*67
1484805802.23,35632,6.06,73896.8,-13.79,-45.13,-45.33,0,*6F
1484805803.5,35633,6.0,73898.5,-13.79,-45.13,-45.47,0,*6D
1484805804.77,35634,6.06,73902.0,-13.79,-45.53,-45.73,0,*69
1484805806.04,35635,6.06,73898.8,-13.79,-45.53,-45.73,0,*68
1484805807.28,35636,6.0,73898.5,-13.81,-45.61,-45.81,0,*60
1484805808.56,35637,6.0,73896.0,-13.79,-45.27,-45.53,0,*6B
1484805809.84,35638,6.06,73896.0,-13.79,-45.27,-45.53,0,*64
1484805811.11,35639,6.0,73896.3,-13.79,-45.47,-45.67,0,*64
1484805812.37,35640,6.0,73896.5,-13.79,-45.47,-45.53,0,*6D
1484805813.64,35641,6.06,73896.8,-13.79,-45.13,-45.47,0,*68
1484805814.91,35642,6.0,73898.8,-13.79,-45.07,-45.33,0,*6D
1484805816.16,35643,6.0,73896.5,-13.75,-44.87,-45.21,0,*6A
1484805817.41,35644,6.06,73900.3,-13.77,-45.07,-45.33,0,*65
1484805818.65,35645,6.06,73900.5,-13.77,-45.07,-45.53,0,*62
1484805819.9,35646,6.06,73900.3,-13.77,-45.27,-45.67,0,*64
1484805821.14,35647,6.0,73898.3,-13.77,-45.81,-46.01,0,*6A
1484805822.44,35648,6.06,73904.8,-13.75,-45.27,-45.47,0,*6A
1484805823.65,35649,6.0,73898.8,-13.77,-45.33,-45.53,0,*69
1484805824.87,35650,6.06,73900.8,-13.77,-45.53,-45.67,0,*60
1484805826.09,35651,6.0,73900.5,-13.77,-45.13,-45.53,0,*62
1484805827.37,35652,6.06,73900.3,-13.75,-45.27,-45.61,0,*65
1484805828.66,35653,6.06,73902.0,-13.75,-45.27,-45.47,0,*60
1484805829.92,35654,6.0,73898.0,-13.77,-45.73,-45.81,0,*6E
1484805831.19,35655,6.06,73900.0,-13.77,-45.47,-45.73,0,*65
1484805832.45,35656,6.0,73898.0,-13.75,-45.07,-45.41,0,*61
1484805833.72,35657,6.06,73902.3,-13.75,-45.47,-45.61,0,*66
1484805835.0,35658,6.0,73898.5,-13.75,-45.27,-45.61,0,*6F
1484805836.26,35659,6.06,73898.3,-13.75,-45.21,-45.47,0,*6C
1484805837.55,35660,6.06,73902.5,-13.75,-45.07,-45.47,0,*62
1484805838.79,35661,6.06,73900.3,-13.75,-45.61,-45.87,0,*6F
1484805840.03,35662,6.0,73902.0,-13.71,-45.61,-45.87,0,*68
1484805841.26,35663,6.06,73902.0,-13.71,-45.67,-45.95,0,*6C
1484805842.53,35664,6.06,73902.8,-13.71,-45.47,-45.61,0,*62
1484805843.76,35665,6.0,73894.8,-13.71,-45.61,-45.67,0,*61
1484805845.01,35666,6.0,73898.8,-13.71,-45.41,-45.47,0,*62
1484805846.23,35667,6.0,73902.0,-13.69,-45.21,-45.41,0,*6A
1484805847.52,35668,6.06,73900.0,-13.71,-45.27,-45.47,0,*6C
1484805848.81,35669,6.0,73900.8,-13.71,-45.07,-45.47,0,*6F
1484805850.02,35670,6.06,73898.3,-13.69,-44.99,-45.33,0,*6B
1484805851.3,35671,6.0,73896.8,-13.71,-45.27,-45.61,0,*60
1484805852.58,35672,6.0,73900.3,-13.71,-45.07,-45.47,0,*65
1484805853.8,35673,6.0,73900.3,-13.69,-45.21,-45.53,0,*6C
1484805855.07,35674,6.0,73900.3,-13.71,-45.21,-45.47,0,*67
1484805856.27,35675,6.0,73898.0,-13.69,-45.41,-45.67,0,*6B
1484805857.48,35676,6.06,73902.5,-13.69,-45.61,-45.67,0,*6A
1484805858.72,35677,6.06,73902.0,-13.71,-45.21,-45.41,0,*62
1484805859.99,35678,6.06,73900.3,-13.71,-45.27,-45.61,0,*69
1484805861.23,35679,6.0,73898.3,-13.69,-45.81,-45.87,0,*65
1484805862.49,35680,6.0,73902.0,-13.69,-45.47,-45.73,0,*62
1484805863.75,35681,6.06,73900.8,-13.71,-45.21,-45.47,0,*6D
1484805864.99,35682,6.06,73900.5,-13.69,-44.93,-45.21,0,*6F
1484805866.23,35683,6.0,73896.8,-13.69,-44.93,-45.13,0,*6F
1484805867.48,35684,6.06,73898.8,-13.69,-44.93,-45.21,0,*69
1484805868.75,35685,6.0,73898.5,-13.67,-44.93,-45.21,0,*66
1484805869.98,35686,6.06,73900.8,-13.67,-45.33,-45.53,0,*6B
1484805871.23,35687,6.06,73900.8,-13.65,-44.93,-45.13,0,*67
1484805872.49,35688,6.06,73898.0,-13.67,-44.93,-45.13,0,*6A
1484805873.73,35689,6.0,73902.8,-13.67,-45.61,-45.87,0,*6A
1484805874.95,35690,6.06,73900.8,-13.65,-45.21,-45.41,0,*6E
1484805876.22,35691,6.0,73900.8,-13.67,-44.93,-45.21,0,*63
1484805877.44,35692,6.06,73902.8,-13.65,-45.13,-45.33,0,*68
1484805878.68,35693,6.0,73898.3,-13.65,-45.07,-45.33,0,*6C
1484805879.95,35694,6.06,73902.0,-13.65,-44.73,-45.07,0,*6E
1484805881.22,35695,6.06,73902.0,-13.67,-44.93,-45.33,0,*64
1484805882.44,35696,6.0,73898.0,-13.63,-45.53,-45.61,0,*69
1484805883.65,35697,6.06,73900.0,-13.65,-45.13,-45.33,0,*6D
1484805884.89,35698,6.06,73902.0,-13.67,-45.13,-45.33,0,*60
1484805886.11,35699,6.0,73896.3,-13.65,-44.87,-45.13,0,*6D
1484805887.38,35700,6.06,73900.8,-13.65,-44.67,-44.93,0,*6B
1484805888.65,35701,6.06,73902.5,-13.61,-44.99,-45.27,0,*61
1484805889.9,35702,6.0,73896.0,-13.63,-45.07,-45.33,0,*63
1484805891.14,35703,6.06,73900.5,-13.63,-45.13,-45.27,0,*62
1484805892.4,35704,6.0,73902.8,-13.61,-45.41,-45.47,0,*66
1484805893.69,35705,6.0,73900.5,-13.61,-45.47,-45.73,0,*66
1484805894.93,35706,6.06,73900.5,-13.63,-45.73,-46.01,0,*66
1484805896.15,35707,6.06,73902.8,-13.63,-45.95,-46.21,0,*6D
1484805897.37,35708,6.06,73900.0,-13.63,-46.01,-46.35,0,*69
1484805898.6,35709,6.06,73904.0,-13.63,-45.73,-45.95,0,*67
1484805899.85,35710,6.06,73900.5,-13.63,-45.47,-45.61,0,*63
1484805901.12,35711,6.0,73900.5,-13.63,-45.27,-45.47,0,*60
1484805902.33,35712,6.06,73900.8,-13.65,-45.33,-45.53,0,*65
1484805903.58,35713,6.0,73896.0,-13.63,-44.93,-45.13,0,*6D
1484805904.83,35714,6.0,73898.5,-13.61,-44.79,-45.21,0,*6D
1484805906.05,35715,6.06,73900.5,-13.63,-45.53,-45.61,0,*63
1484805907.27,35716,6.06,73902.8,-13.63,-45.53,-45.95,0,*6B
1484805908.51,35717,6.0,73900.0,-13.63,-45.73,-45.95,0,*68
1484805909.77,35718,6.0,73902.0,-13.63,-45.47,-45.73,0,*68
1484805911.01,35719,6.06,73904.0,-13.63,-45.73,-45.95,0,*66
1484805912.26,35720,6.0,73896.8,-13.63,-46.15,-46.21,0,*63
1484805913.52,35721,6.0,73894.8,-13.61,-45.73,-45.95,0,*6F
1484805914.76,35722,6.0,73896.0,-13.63,-45.95,-46.15,0,*6D
1484805916.03,35723,6.0,73896.8,-13.63,-45.07,-45.27,0,*65
1484805917.3,35724,6.0,73896.3,-13.63,-44.93,-45.27,0,*6E
1484805918.58,35725,6.0,73900.3,-13.63,-44.93,-45.27,0,*6F
1484805919.84,35726,6.0,73896.3,-13.63,-45.73,-45.81,0,*6F
1484805921.08,35727,6.0,73896.3,-13.61,-45.41,-45.53,0,*62
1484805922.35,35728,6.06,73900.8,-13.61,-45.21,-45.47,0,*6E
1484805923.62,35729,6.0,73900.3,-13.61,-45.67,-46.15,0,*69
1484805924.86,35730,6.06,73900.5,-13.63,-45.95,-46.15,0,*6E
1484805926.08,35731,6.06,73902.3,-13.63,-45.95,-46.21,0,*68
1484805927.32,35732,6.06,73900.5,-13.63,-45.61,-45.73,0,*64
1484805928.55,35733,6.06,73900.0,-13.63,-45.53,-45.61,0,*67
1484805929.79,35734,6.06,73900.8,-13.63,-45.47,-45.53,0,*64
1484805931.02,35735,6.06,73906.5,-13.61,-45.41,-45.67,0,*66
1484805932.29,35736,6.0,73898.8,-13.63,-45.73,-46.07,0,*63
1484805933.53,35737,6.06,73904.0,-13.63,-45.61,-45.81,0,*6C
1484805934.78,35738,6.06,73902.8,-13.63,-45.61,-45.81,0,*63
1484805936.02,35739,6.06,73902.5,-13.63,-45.47,-45.61,0,*68
1484805937.27,35740,6.06,73900.5,-13.63,-45.53,-45.73,0,*60
1484805938.56,35741,6.0,73902.8,-13.61,-45.07,-45.27,0,*63
1484805939.81,35742,6.0,73900.8,-13.61,-44.79,-45.21,0,*6E
1484805941.07,35743,6.06,73904.3,-13.63,-45.27,-45.53,0,*62
1484805942.36,35744,6.06,73906.3,-13.61,-45.07,-45.27,0,*66
1484805943.66,35745,6.06,73904.3,-13.61,-45.07,-45.27,0,*67
1484805944.93,35746,6.0,73902.5,-13.59,-45.27,-45.47,0,*6B
1484805946.21,35747,6.06,73906.3,-13.59,-45.27,-45.47,0,*6A
1484805947.48,35748,6.06,73902.5,-13.61,-45.27,-45.53,0,*6B
1484805948.73,35749,6.0,73902.5,-13.59,-45.07,-45.41,0,*60
1484805949.95,35750,6.06,73904.8,-13.59,-45.67,-45.87,0,*64
1484805951.18,35751,6.0,73902.0,-13.59,-45.47,-45.67,0,*69
1484805952.4,35752,6.0,73902.3,-13.59,-45.67,-45.95,0,*65
1484805953.62,35753,6.06,73902.0,-13.59,-45.53,-45.87,0,*60
1484805954.88,35754,6.06,73902.5,-13.61,-45.47,-45.67,0,*67
1484805956.15,35755,6.06,73904.0,-13.59,-45.47,-45.47,0,*6F
1484805957.38,35756,6.06,73902.8,-13.61,-45.41,-45.67,0,*63
1484805958.64,35757,6.0,73902.8,-13.61,-45.47,-45.67,0,*64
1484805959.86,35758,6.06,73900.5,-13.59,-45.53,-45.67,0,*65
1484805961.11,35759,6.06,73902.5,-13.59,-45.47,-45.53,0,*66
1484805962.37,35760,6.06,73902.5,-13.59,-45.47,-45.73,0,*6E
1484805963.59,35761,6.06,73904.0,-13.59,-45.41,-45.53,0,*6B
1484805964.8,35762,6.06,73900.3,-13.59,-45.67,-45.95,0,*66
1484805966.05,35763,6.06,73900.5,-13.59,-44.99,-45.27,0,*6E
1484805967.3,35764,6.06,73902.3,-13.59,-45.21,-45.27,0,*6B
1484805968.52,35765,6.06,73900.3,-13.59,-45.13,-45.41,0,*6B
1484805969.76,35766,6.06,73900.3,-13.57,-45.61,-45.87,0,*69
1484805970.98,35767,6.06,73902.3,-13.59,-45.53,-45.87,0,*67
1484805972.23,35768,6.06,73906.0,-13.57,-45.33,-45.61,0,*68
1484805973.5,35769,6.0,73902.3,-13.59,-45.07,-45.27,0,*62
1484805974.73,35770,6.06,73902.5,-13.59,-44.79,-44.87,0,*69
1484805975.98,35771,6.06,73902.8,-13.57,-44.99,-45.21,0,*65
1484805977.22,35772,6.06,73906.0,-13.57,-45.41,-45.67,0,*60
1484805978.47,35773,6.0,73904.5,-13.57,-45.13,-45.33,0,*67
1484805979.72,35774,6.06,73904.8,-13.57,-44.99,-45.21,0,*60
1484805981.02,35775,6.06,73906.3,-13.53,-44.93,-45.27,0,*69
1484805982.23,35776,6.06,73906.8,-13.55,-45.13,-45.33,0,*60
1484805983.5,35777,6.06,73908.3,-13.55,-45.47,-45.81,0,*69
1484805984.79,35778,6.06,73904.5,-13.57,-45.47,-45.81,0,*64
1484805986.03,35779,6.06,73904.0,-13.57,-45.33,-45.41,0,*6A
1484805987.25,35780,6.06,73906.0,-13.55,-45.21,-45.41,0,*6D
1484805988.5,35781,6.0,73902.0,-13.57,-45.21,-45.41,0,*6E
1484805989.74,35782,6.06,73904.0,-13.53,-45.13,-45.41,0,*68
1484805990.95,35783,6.06,73900.0,-13.55,-45.13,-45.33,0,*6A
1484805992.23,35784,6.06,73904.0,-13.53,-45.27,-45.41,0,*69
1484805993.49,35785,6.06,73906.5,-13.53,-45.53,-45.73,0,*6A
1484805994.7,35786,6.06,73904.5,-13.55,-45.41,-45.67,0,*69
1484805995.98,35787,6.06,73906.0,-13.53,-45.27,-45.33,0,*6F
1484805997.18,35788,6.06,73906.5,-13.55,-45.13,-45.13,0,*63
1484805998.43,35789,6.06,73910.0,-13.53,-44.87,-45.13,0,*68
1484805999.64,35790,6.0,73902.8,-13.55,-45.33,-45.61,0,*6D
1484806000.91,35791,6.06,73902.0,-13.53,-44.93,-45.13,0,*64
1484806002.2,35792,6.06,73900.8,-13.53,-44.73,-45.07,0,*6C
1484806003.47,35793,6.0,73902.8,-13.53,-44.93,-45.13,0,*66
1484806004.71,35794,6.06,73900.0,-13.53,-44.87,-45.13,0,*64
1484806006.01,35795,6.06,73906.3,-13.49,-44.93,-45.27,0,*6C
1484806007.25,35796,6.06,73906.3,-13.53,-44.87,-45.13,0,*66
1484806008.52,35797,6.06,73900.8,-13.49,-44.73,-45.13,0,*67
1484806009.77,35798,6.06,73902.3,-13.47,-45.07,-45.33,0,*66
1484806011.0,35799,6.0,73902.0,-13.49,-45.33,-45.53,0,*68
1484806012.23,35800,6.06,73904.8,-13.47,-44.87,-45.21,0,*62
1484806013.47,35801,6.06,73902.8,-13.49,-45.33,-45.53,0,*66
1484806014.68,35802,6.06,73900.8,-13.47,-45.33,-45.33,0,*6D
1484806015.92,35803,6.06,73900.5,-13.47,-44.99,-45.07,0,*6A
1484806017.16,35804,6.06,73902.0,-13.49,-45.13,-45.33,0,*67
1484806018.41,35805,6.0,73900.0,-13.47,-45.07,-45.33,0,*6D
1484806019.65,35806,6.06,73902.5,-13.47,-44.79,-45.07,0,*61
1484806020.95,35807,6.0,73898.5,-13.45,-45.07,-45.27,0,*68
1484806022.2,35808,6.06,73904.0,-13.45,-45.33,-45.47,0,*66
1484806023.48,35809,6.06,73902.0,-13.45,-45.27,-45.53,0,*67
1484806024.7,35810,6.06,73906.3,-13.47,-45.21,-45.33,0,*6D
1484806025.95,35811,6.06,73902.5,-13.47,-44.79,-45.07,0,*67
1484806027.2,35812,6.06,73900.5,-13.45,-44.87,-45.21,0,*63
1484806028.47,35813,6.06,73902.8,-13.45,-44.99,-45.27,0,*6B
1484806029.75,35814,6.06,73902.5,-13.45,-45.27,-45.53,0,*6B
1484806031.04,35815,6.06,73904.3,-13.45,-45.47,-45.73,0,*6E
1484806032.25,35816,6.06,73902.5,-13.43,-45.33,-45.67,0,*6D
1484806033.51,35817,6.0,73902.8,-13.43,-45.47,-45.73,0,*6A
1484806034.77,35818,6.06,73902.0,-13.43,-45.07,-45.27,0,*60
1484806036.07,35819,6.06,73904.8,-13.45,-45.27,-45.47,0,*63
1484806037.36,35820,6.06,73904.3,-13.45,-45.47,-45.73,0,*68
1484806038.6,35821,6.06,73902.8,-13.43,-45.53,-45.73,0,*6A
1484806039.85,35822,6.06,73906.3,-13.45,-45.53,-45.87,0,*64
1484806041.09,35823,6.06,73904.0,-13.43,-45.87,-46.15,0,*62
1484806042.33,35824,6.06,73904.5,-13.45,-45.67,-45.95,0,*66
1484806043.57,35825,6.06,73906.0,-13.43,-45.53,-46.07,0,*6E
1484806044.81,35826,6.06,73906.8,-13.45,-45.67,-45.87,0,*67
1484806046.05,35827,6.06,73906.0,-13.45,-45.33,-45.53,0,*6E
1484806047.32,35828,6.06,73910.5,-13.45,-45.21,-45.47,0,*67
1484806048.59,35829,6.0,73904.0,-13.45,-45.21,-45.27,0,*60
1484806049.83,35830,6.06,73910.8,-13.45,-45.33,-45.53,0,*68
1484806051.08,35831,6.06,73906.0,-13.43,-45.27,-45.33,0,*6C
1484806052.33,35832,6.06,73910.3,-13.43,-45.27,-45.53,0,*69
1484806053.55,35833,6.06,73904.3,-13.43,-45.53,-45.87,0,*62
1484806054.76,35834,6.06,73906.8,-13.43,-45.53,-45.67,0,*6B
1484806056.0,35835,6.06,73908.3,-13.43,-45.53,-45.73,0,*6F
1484806057.25,35836,6.06,73908.0,-13.45,-45.53,-45.87,0,*61
1484806058.48,35837,6.06,73908.5,-13.43,-45.47,-45.67,0,*6D
1484806059.72,35838,6.06,73904.8,-13.43,-45.53,-45.73,0,*62
1484806060.94,35839,6.06,73910.5,-13.43,-45.67,-45.87,0,*6F
1484806062.22,35840,6.06,73910.5,-13.45,-45.73,-46.07,0,*69
1484806063.49,35841,6.06,73908.8,-13.45,-45.95,-46.15,0,*63
1484806064.74,35842,6.06,73908.3,-13.43,-45.53,-45.73,0,*6F
1484806065.99,35843,6.06,73910.5,-13.45,-45.73,-45.87,0,*61
1484806067.24,35844,6.06,73910.5,-13.45,-45.53,-45.95,0,*67
1484806068.51,35845,6.06,73906.5,-13.45,-45.95,-46.07,0,*64
1484806069.75,35846,6.06,73906.5,-13.45,-45.53,-45.67,0,*68
1484806070.99,35847,6.06,73904.3,-13.45,-45.53,-45.87,0,*67
1484806072.26,35848,6.06,73910.0,-13.45,-45.47,-45.87,0,*6D
1484806073.5,35849,6.0,73904.3,-13.45,-45.53,-45.95,0,*6A
1484806074.72,35850,6.0,73906.8,-13.43,-45.33,-45.53,0,*68
1484806075.95,35851,6.06,73906.8,-13.43,-45.47,-45.67,0,*6D
1484806077.19,35852,6.06,73908.5,-13.45,-45.53,-45.95,0,*60
1484806078.44,35853,6.06,73906.5,-13.43,-45.87,-46.15,0,*65
1484806079.65,35854,6.06,73904.8,-13.43,-45.67,-45.95,0,*67
1484806080.89,35855,6.06,73906.5,-13.43,-45.87,-46.07,0,*60
1484806082.16,35856,6.06,73908.0,-13.45,-45.95,-46.15,0,*65
1484806083.4,35857,6.06,73908.3,-13.43,-45.95,-46.15,0,*62
1484806084.68,35858,6.06,73906.8,-13.45,-46.15,-46.35,0,*62
1484806085.96,35859,6.06,73906.3,-13.45,-45.73,-46.07,0,*61
1484806087.21,35860,6.06,73906.8,-13.45,-45.53,-45.67,0,*6C
1484806088.47,35861,6.06,73906.8,-13.43,-45.73,-46.07,0,*6C
1484806089.74,35862,6.0,73904.0,-13.45,-45.87,-46.07,0,*62
1484806091.0,35863,6.0,73902.5,-13.45,-45.87,-46.15,0,*60
1484806092.27,35864,6.06,73910.3,-13.45,-46.07,-46.35,0,*6E
1484806093.52,35865,6.06,73904.3,-13.47,-46.15,-46.35,0,*6E
1484806094.73,35866,6.06,73910.3,-13.47,-45.87,-45.95,0,*6C
1484806095.98,35867,6.06,73906.0,-13.49,-45.61,-46.01,0,*65
1484806097.26,35868,6.06,73910.3,-13.47,-46.07,-46.15,0,*62
1484806098.5,35869,6.0,73906.5,-13.47,-46.21,-46.41,0,*66
1484806099.77,35870,6.06,73908.0,-13.47,-46.15,-46.49,0,*61
1484806101.01,35871,6.0,73904.5,-13.47,-45.73,-45.95,0,*61
1484806102.28,35872,6.06,73908.8,-13.49,-46.01,-46.41,0,*60
1484806103.55,35873,6.06,73904.8,-13.47,-46.07,-46.49,0,*61